Date String (YYYY-MM-DD hh:mm:ss) UTC,Instrument flags,Ambient pressure (hPa),Sample flow (lpm),Bypass flow (lpm),Sample temperature (°C),Ambient temperature (°C),ASC tube jacket temperature (°C),LED temperature (°C),Box temperature (°C),Sample RH (%),Span deviation,Mass concentration (μg/m³),Mass concentration (μg/m³),Mass concentration (μg/m³)
DateTimeUTC,F1_M11,P_M11,Q1_M11,Q2_M11,T1_M11,T2_M11,T3_M11,T4_M11,T5_M11,U1_M11,ZSPAN_M11,X0_M11,X2_M11,X1_M11
2022-04-26 08:00:00,,0830.9,5.00,0.00,24.8,23.8,00.0,33.7,26.5,13.8,0000.0,0008.79,0004.07,0003.51
2022-04-26 08:01:00,,0830.9,5.00,0.00,24.8,23.8,00.0,33.7,26.5,13.8,0000.0,0008.77,0004.04,0003.49
2022-04-26 08:02:00,,0831.0,5.00,0.00,24.7,23.8,00.0,33.7,26.5,13.8,0000.0,0008.86,0004.06,0003.48
2022-04-26 08:03:00,,0830.9,5.01,0.00,24.7,23.8,00.0,33.7,26.6,13.9,0000.0,0008.89,0004.07,0003.48
2022-04-26 08:04:00,,0830.9,5.00,0.00,24.7,23.8,00.0,33.7,26.5,13.9,0000.0,0008.92,0004.07,0003.48
2022-04-26 08:05:00,,0830.9,5.00,0.00,24.7,23.8,00.0,33.7,26.5,13.9,0000.0,0008.83,0004.03,0003.46
2022-04-26 08:06:00,,0830.9,5.00,0.00,24.7,23.8,00.0,33.7,26.5,13.8,0000.0,0008.76,0004.00,0003.45
2022-04-26 08:07:00,,0830.9,5.00,0.00,24.7,23.8,00.0,33.7,26.5,13.8,0000.0,0009.18,0004.04,0003.44
2022-04-26 08:08:00,,0831.0,5.00,0.00,24.7,23.8,00.0,33.7,26.5,13.8,0000.0,0008.48,0004.04,0003.45
2022-04-26 08:09:00,,0830.9,5.00,0.00,24.7,23.8,00.0,33.7,26.5,13.8,0000.0,0008.39,0004.04,0003.44
2022-04-26 08:10:00,,0830.9,4.99,0.00,24.7,23.7,00.0,33.7,26.4,13.8,0000.0,0008.41,0004.02,0003.44
2022-04-26 08:11:00,,0830.9,5.00,0.00,24.7,23.8,00.0,33.7,26.5,13.8,0000.0,0008.28,0004.01,0003.44
2022-04-26 08:12:00,,0830.9,5.00,0.00,24.7,23.7,00.0,33.7,26.5,13.8,0000.0,0008.41,0004.05,0003.45
2022-04-26 08:13:00,,0830.9,5.00,0.00,24.6,23.7,00.0,33.6,26.4,13.8,0000.0,0008.40,0004.07,0003.46
2022-04-26 08:14:00,,0830.9,5.00,0.00,24.6,23.7,00.0,33.6,26.4,13.8,0000.0,0008.35,0004.07,0003.47
2022-04-26 08:15:00,,0830.9,5.00,0.00,24.6,23.7,00.0,33.6,26.4,13.8,0000.0,0008.38,0004.07,0003.47
2022-04-26 08:16:00,,0830.9,5.01,0.00,24.6,23.7,00.0,33.6,26.4,13.8,0000.0,0008.62,0004.13,0003.49
2022-04-26 08:17:00,,0830.9,4.99,0.00,24.6,23.6,00.0,33.6,26.3,13.8,0000.0,0008.71,0004.16,0003.50
2022-04-26 08:18:00,,0830.9,5.00,0.00,24.6,23.6,00.0,33.6,26.4,13.8,0000.0,0008.34,0004.15,0003.52
2022-04-26 08:19:00,,0830.8,5.01,0.00,24.6,23.6,00.0,33.6,26.4,13.8,0000.0,0008.19,0004.15,0003.52
2022-04-26 08:20:00,,0830.8,5.00,0.00,24.6,23.6,00.0,33.6,26.3,13.7,0000.0,0008.36,0004.16,0003.53
2022-04-26 08:21:00,,0830.8,5.00,0.00,24.5,23.6,00.0,33.6,26.3,13.7,0000.0,0008.19,0004.18,0003.53
2022-04-26 08:22:00,,0830.7,5.00,0.00,24.5,23.5,00.0,33.6,26.3,13.6,0000.0,0008.40,0004.22,0003.55
2022-04-26 08:23:00,,0830.7,4.99,0.00,24.5,23.5,00.0,33.6,26.3,13.6,0000.0,0008.47,0004.24,0003.56
2022-04-26 08:24:00,,0830.7,5.00,0.00,24.5,23.5,00.0,33.6,26.3,13.7,0000.0,0008.41,0004.23,0003.56
2022-04-26 08:25:00,,0830.7,4.99,0.00,24.5,23.5,00.0,33.6,26.3,13.7,0000.0,0008.42,0004.22,0003.56
2022-04-26 08:26:00,,0830.7,5.00,0.00,24.5,23.5,00.0,33.5,26.3,13.6,0000.0,0008.45,0004.25,0003.57
2022-04-26 08:27:00,,0830.7,5.00,0.00,24.5,23.5,00.0,33.5,26.3,13.6,0000.0,0008.47,0004.24,0003.59
2022-04-26 08:28:00,,0830.7,5.01,0.00,24.5,23.6,00.0,33.5,26.3,13.6,0000.0,0008.53,0004.25,0003.59
2022-04-26 08:29:00,,0830.7,4.99,0.00,24.5,23.6,00.0,33.5,26.3,13.6,0000.0,0008.48,0004.23,0003.59
2022-04-26 08:30:00,,0830.7,5.00,0.00,24.4,23.5,00.0,33.5,26.2,13.6,0000.0,0008.47,0004.22,0003.59
2022-04-26 08:31:00,,0830.7,5.01,0.00,24.4,23.5,00.0,33.5,26.2,13.6,0000.0,0008.05,0004.16,0003.58
2022-04-26 08:32:00,,0830.7,5.00,0.00,24.4,23.5,00.0,33.5,26.2,13.6,0000.0,0007.77,0004.14,0003.57
2022-04-26 08:33:00,,0830.7,5.00,0.00,24.4,23.5,00.0,33.5,26.2,13.6,0000.0,0007.66,0004.13,0003.57
2022-04-26 08:34:00,,0830.7,5.00,0.00,24.4,23.5,00.0,33.5,26.2,13.5,0000.0,0007.54,0004.10,0003.57
2022-04-26 08:35:00,,0830.7,5.00,0.00,24.4,23.5,00.0,33.5,26.2,13.5,0000.0,0007.62,0004.12,0003.58
2022-04-26 08:36:00,,0830.7,5.00,0.00,24.4,23.4,00.0,33.4,26.1,13.5,0000.0,0008.11,0004.14,0003.59
2022-04-26 08:37:00,,0830.7,5.00,0.00,24.4,23.5,00.0,33.4,26.1,13.5,0000.0,0009.24,0004.13,0003.59
2022-04-26 08:38:00,,0830.7,5.00,0.00,24.4,23.5,00.0,33.4,26.1,13.6,0000.0,0009.58,0004.13,0003.59
2022-04-26 08:39:00,,0830.7,5.00,0.00,24.4,23.4,00.0,33.4,26.1,13.6,0000.0,0009.89,0004.11,0003.59
2022-04-26 08:40:00,,0830.7,4.99,0.00,24.4,23.5,00.0,33.4,26.1,13.6,0000.0,0009.85,0004.11,0003.60
2022-04-26 08:41:00,,0830.6,5.00,0.00,24.4,23.5,00.0,33.4,26.1,13.6,0000.0,0010.02,0004.13,0003.61
2022-04-26 08:42:00,,0830.6,5.01,0.00,24.3,23.4,00.0,33.4,26.1,13.6,0000.0,0011.09,0004.18,0003.63
2022-04-26 08:43:00,,0830.6,5.00,0.00,24.3,23.4,00.0,33.4,26.1,13.6,0000.0,0011.25,0004.19,0003.65
2022-04-26 08:44:00,,0830.7,5.00,0.00,24.3,23.4,00.0,33.4,26.1,13.6,0000.0,0011.05,0004.19,0003.67
2022-04-26 08:45:00,,0830.7,5.00,0.00,24.3,23.4,00.0,33.4,26.1,13.5,0000.0,0011.06,0004.22,0003.68
2022-04-26 08:46:00,,0830.7,5.00,0.00,24.3,23.4,00.0,33.4,26.1,13.5,0000.0,0010.95,0004.21,0003.69
2022-04-26 08:47:00,,0830.7,5.00,0.00,24.3,23.4,00.0,33.3,26.0,13.6,0000.0,0010.45,0004.21,0003.69
2022-04-26 08:48:00,,0830.7,4.99,0.00,24.3,23.4,00.0,33.3,26.0,13.6,0000.0,0009.39,0004.22,0003.70
2022-04-26 08:49:00,,0830.6,5.00,0.00,24.3,23.3,00.0,33.3,26.1,13.6,0000.0,0008.89,0004.24,0003.71
2022-04-26 08:50:00,,0830.6,5.00,0.00,24.3,23.3,00.0,33.3,26.1,13.7,0000.0,0008.59,0004.28,0003.71
2022-04-26 08:51:00,,0830.6,5.01,0.00,24.3,23.3,00.0,33.3,26.0,13.7,0000.0,0008.70,0004.30,0003.70
2022-04-26 08:52:00,,0830.6,5.00,0.00,24.2,23.3,00.0,33.3,26.0,13.7,0000.0,0008.59,0004.30,0003.69
2022-04-26 08:53:00,,0830.5,4.99,0.00,24.2,23.3,00.0,33.3,26.0,13.7,0000.0,0007.64,0004.29,0003.68
2022-04-26 08:54:00,,0830.6,5.00,0.00,24.2,23.2,00.0,33.3,26.0,13.8,0000.0,0007.66,0004.29,0003.66
2022-04-26 08:55:00,,0830.5,4.99,0.00,24.2,23.2,00.0,33.3,26.0,13.8,0000.0,0007.70,0004.28,0003.64
2022-04-26 08:56:00,,0830.5,5.00,0.00,24.2,23.2,00.0,33.3,26.0,13.8,0000.0,0007.68,0004.24,0003.62
2022-04-26 08:57:00,,0830.5,5.00,0.00,24.2,23.3,00.0,33.2,26.0,13.8,0000.0,0008.02,0004.23,0003.60
2022-04-26 08:58:00,,0830.5,5.01,0.00,24.2,23.2,00.0,33.2,25.9,13.8,0000.0,0008.20,0004.22,0003.60
2022-04-26 08:59:00,,0830.5,5.01,0.00,24.2,23.2,00.0,33.2,25.9,13.8,0000.0,0008.43,0004.22,0003.59
